TimeMDT,TemperatureF,Dew PointF,Humidity,Sea Level PressureIn,VisibilityMPH,Wind Direction,Wind SpeedMPH,Gust SpeedMPH,PrecipitationIn,Events,Conditions,WindDirDegrees,DateUTC
12:53 AM,30.9,16.0,54,29.94,10.0,ESE,9.2,-,N/A,,Mostly Cloudy,110,2013-03-19 06:53:00
1:53 AM,28.0,16.0,61,29.97,10.0,East,8.1,-,N/A,,Overcast,80,2013-03-19 07:53:00
2:53 AM,27.0,15.1,61,29.99,10.0,ESE,8.1,-,N/A,,Mostly Cloudy,110,2013-03-19 08:53:00
3:53 AM,25.0,14.0,63,29.98,10.0,SE,8.1,-,N/A,,Clear,140,2013-03-19 09:53:00
4:53 AM,21.9,12.9,68,29.99,10.0,SSE,5.8,-,N/A,,Clear,150,2013-03-19 10:53:00
5:53 AM,23.0,14.0,68,30.02,10.0,SSW,8.1,-,N/A,,Clear,200,2013-03-19 11:53:00
6:53 AM,27.0,14.0,58,30.07,10.0,NW,10.4,-,N/A,,Clear,310,2013-03-19 12:53:00
7:53 AM,26.1,15.1,63,30.15,10.0,NNW,18.4,24.2,N/A,,Clear,340,2013-03-19 13:53:00
8:53 AM,28.0,14.0,56,30.18,10.0,North,18.4,-,N/A,,Clear,350,2013-03-19 14:53:00
9:53 AM,33.1,18.0,54,30.18,10.0,North,18.4,21.9,N/A,,Clear,360,2013-03-19 15:53:00
10:53 AM,39.0,15.1,38,30.16,10.0,NNW,15.0,-,N/A,,Clear,340,2013-03-19 16:53:00
11:53 AM,43.0,10.0,26,30.14,10.0,NNW,17.3,26.5,N/A,,Clear,340,2013-03-19 17:53:00
12:53 PM,46.0,5.0,19,30.14,10.0,NNW,20.7,29.9,N/A,,Clear,340,2013-03-19 18:53:00
1:53 PM,46.9,5.0,18,30.13,10.0,NNW,17.3,29.9,N/A,,Clear,330,2013-03-19 19:53:00
2:53 PM,48.9,5.0,17,30.11,10.0,NNW,23.0,36.8,N/A,,Clear,340,2013-03-19 20:53:00
3:53 PM,50.0,-2.0,12,30.10,10.0,NNW,19.6,35.7,N/A,,Clear,340,2013-03-19 21:53:00
4:53 PM,46.9,7.0,20,30.16,10.0,North,18.4,39.1,N/A,,Clear,10,2013-03-19 22:53:00
5:53 PM,44.1,9.0,24,30.19,10.0,North,20.7,28.8,N/A,,Clear,360,2013-03-19 23:53:00
6:53 PM,37.0,15.1,41,30.25,10.0,NNE,18.4,28.8,N/A,,Clear,30,2013-03-20 00:53:00
7:53 PM,30.9,17.1,57,30.32,10.0,ENE,10.4,-,N/A,,Clear,60,2013-03-20 01:53:00
8:53 PM,27.0,18.0,69,30.36,10.0,ENE,6.9,-,N/A,,Clear,70,2013-03-20 02:53:00
9:53 PM,21.0,15.1,78,30.39,10.0,North,8.1,-,N/A,,Clear,360,2013-03-20 03:53:00
10:53 PM,21.0,15.1,78,30.40,10.0,North,8.1,-,N/A,,Clear,350,2013-03-20 04:53:00
11:53 PM,19.9,15.1,81,30.40,10.0,NNW,8.1,-,N/A,,Clear,330,2013-03-20 05:53:00